Voltar ao catálogo

STARLINK-34678

AtivoComunicaçõesSSO
NORAD 65443·PAYLOAD·🇺🇸 United States

Lançado Sep 3, 2025 de Vandenberg Space Force Base

Loading…

Próximas Passagens (próximas 24 horas)

TLE

AtualizadoSource: CelesTrak SupGP

Época: Sep 14, 2026, 22:45 UTC

1 65443C 25194K   26257.94840278  .00101670  00000+0  31576-2 0  2572
2 65443  97.2848 107.6492 0001732  93.7973 340.1528 15.33371772    15

Acompanhe STARLINK-34678 em tempo real com AllMySat

Download on the App Store